Location: Unspecified
(41.1637°N, 24.2901°E)
Time: 05:11:20
(UTC+01:00)

ISS - Pass Details

Date: 12 February 2026
Orbit: 413 x 428 km, 51.6° (Epoch: 18 February)

Event Time Altitude Azimuth Distance (km) Brightness Sun altitude
Exits shadow 04:43:19 - 189° (S) 1,961 -0.4 -19.0°
Reaches altitude 10° 04:44:51 10° 174° (S) 1,481 -0.9 -18.7°
Maximum altitude 04:47:04 17° 132° (SE) 1,136 -0.9 -18.3°
Drops below altitude 10° 04:49:18 10° 89° (E) 1,484 0.3 -17.9°
Sets 04:51:53 0° 69° (ENE) 2,349 1.3 -17.4°
